| time (UTC) | temp F | wind direction | speed MPH | gust MPH | rain 1hr in | rain 24hr in | rain mn in | humidity % | barometer mb |
| 20260505140106 | 75 | 140 | 14.0 | 0.0 | 0.00 | 0.00 | 0.00 | 29 | 1007.0 |
| 20260505130241 | 73 | 150 | 13.0 | 0.0 | 0.00 | 0.00 | 0.00 | 33 | 1007.0 |
| 20260505123110 | 73 | 140 | 13.0 | 0.0 | 0.00 | 0.00 | 0.00 | 35 | 1008.0 |
| 20260505122034 | 72 | 140 | 14.0 | 0.0 | 0.00 | 0.00 | 0.00 | 40 | |
| 20260505120113 | 72 | 150 | 12.0 | 0.0 | 0.00 | 0.00 | 0.00 | 40 | 1008.0 |
| 20260505113110 | 70 | 140 | 12.0 | 0.0 | 0.00 | 0.00 | 0.00 | 43 | 1008.0 |
| 20260505112034 | 70 | 120 | 12.0 | 0.0 | 0.00 | 0.00 | 0.00 | 43 | |
| 20260505110106 | 70 | 120 | 12.0 | 0.0 | 0.00 | 0.00 | 0.00 | 43 | 1008.0 |
| 20260505102035 | 66 | 120 | 12.0 | 0.0 | 0.00 | 0.00 | 0.00 | 45 | |
| 20260505100241 | 66 | 110 | 10.0 | 0.0 | 0.00 | 0.00 | 0.00 | 48 | 1009.0 |
| 20260505093110 | 64 | 100 | 10.0 | 0.0 | 0.00 | 0.00 | 0.00 | 48 | 1009.0 |
| 20260505092033 | 64 | 110 | 12.0 | 0.0 | 0.00 | 0.00 | 0.00 | 48 | |
| 20260505090119 | 63 | 110 | 12.0 | 0.0 | 0.00 | 0.00 | 0.00 | 48 | 1009.0 |
| 20260505083109 | 59 | 110 | 10.0 | 0.0 | 0.00 | 0.00 | 0.00 | 51 | 1009.0 |
| 20260505082034 | 61 | 110 | 9.0 | 0.0 | 0.00 | 0.00 | 0.00 | 51 | |
| 20260505080245 | 59 | 110 | 9.0 | 0.0 | 0.00 | 0.00 | 0.00 | 51 | 1009.0 |
| 20260505073110 | 59 | 110 | 9.0 | 0.0 | 0.00 | 0.00 | 0.00 | 51 | 1009.0 |
| 20260505072034 | 57 | 110 | 9.0 | 0.0 | 0.00 | 0.00 | 0.00 | 50 | |
| 20260505070106 | 57 | 110 | 8.0 | 0.0 | 0.00 | 0.00 | 0.00 | 50 | 1009.0 |
| 20260505063110 | 57 | 120 | 6.0 | 0.0 | 0.00 | 0.00 | 0.00 | 50 | 1010.0 |
| 20260505062035 | 57 | 130 | 7.0 | 0.0 | 0.00 | 0.00 | 0.00 | 50 | |
| 20260505060112 | 57 | 130 | 7.0 | 0.0 | 0.00 | 0.00 | 0.00 | 47 | 1010.0 |
| 20260505053110 | 55 | 80 | 5.0 | 0.0 | 0.00 | 0.00 | 0.00 | 50 | 1009.0 |
| 20260505052032 | 54 | 90 | 5.0 | 0.0 | 0.00 | 0.00 | 0.00 | 50 | |
| 20260505050105 | 55 | 80 | 5.0 | 0.0 | 0.00 | 0.00 | 0.00 | 50 | 1009.0 |
| 20260505040240 | 52 | 30 | 6.0 | 0.0 | 0.00 | 0.00 | 0.00 | 57 | 1009.0 |
| 20260505033110 | 54 | 60 | 8.0 | 0.0 | 0.00 | 0.00 | 0.00 | 54 | 1009.0 |
| 20260505032032 | 54 | 60 | 9.0 | 0.0 | 0.00 | 0.00 | 0.00 | 54 | |
| 20260505030114 | 54 | 60 | 8.0 | 0.0 | 0.00 | 0.00 | 0.00 | 54 | 1010.0 |
| 20260505023109 | 57 | 80 | 5.0 | 0.0 | 0.00 | 0.00 | 0.00 | 47 | 1010.0 |
| 20260505022033 | 57 | 90 | 5.0 | 0.0 | 0.00 | 0.00 | 0.00 | 47 | |
| 20260505020238 | 57 | 90 | 7.0 | 0.0 | 0.00 | 0.00 | 0.00 | 47 | 1010.0 |
| 20260505013110 | 57 | 90 | 8.0 | 0.0 | 0.00 | 0.00 | 0.00 | 47 | 1010.0 |
| 20260505012035 | 57 | 90 | 9.0 | 0.0 | 0.00 | 0.00 | 0.00 | 47 | |
| 20260505010239 | 57 | 90 | 9.0 | 0.0 | 0.00 | 0.00 | 0.00 | 47 | 1010.0 |
| 20260505003110 | 59 | 90 | 8.0 | 0.0 | 0.00 | 0.00 | 0.00 | 44 | 1011.0 |
| 20260505002040 | 59 | 90 | 7.0 | 0.0 | 0.00 | 0.00 | 0.00 | 44 | |
| 20260505000112 | 59 | 90 | 8.0 | 0.0 | 0.00 | 0.00 | 0.00 | 44 | 1011.0 |
| 20260504233110 | 61 | 90 | 6.0 | 0.0 | 0.00 | 0.00 | 0.00 | 41 | 1011.0 |
| 20260504232105 | 61 | 90 | 7.0 | 0.0 | 0.00 | 0.00 | 0.00 | 41 | |
| 20260504230105 | 61 | 90 | 6.0 | 0.0 | 0.00 | 0.00 | 0.00 | 41 | 1011.0 |
| 20260504223116 | 61 | 90 | 8.0 | 0.0 | 0.00 | 0.00 | 0.00 | 41 | 1012.0 |
| 20260504222034 | 63 | 90 | 9.0 | 0.0 | 0.00 | 0.00 | 0.00 | 39 | |
| 20260504220106 | 63 | 90 | 9.0 | 0.0 | 0.00 | 0.00 | 0.00 | 39 | 1012.0 |
| 20260504213110 | 63 | 100 | 8.0 | 0.0 | 0.00 | 0.00 | 0.00 | 39 | 1012.0 |
| 20260504212033 | 63 | 100 | 9.0 | 0.0 | 0.00 | 0.00 | 0.00 | 42 | |
| 20260504210111 | 64 | 100 | 9.0 | 0.0 | 0.00 | 0.00 | 0.00 | 39 | 1012.0 |
| 20260504203110 | 64 | 90 | 8.0 | 0.0 | 0.00 | 0.00 | 0.00 | 39 | 1012.0 |
| 20260504202033 | 64 | 110 | 7.0 | 0.0 | 0.00 | 0.00 | 0.00 | 42 | |
| 20260504200113 | 66 | 100 | 7.0 | 0.0 | 0.00 | 0.00 | 0.00 | 37 | 1012.0 |
| 20260504193109 | 64 | 120 | 8.0 | 0.0 | 0.00 | 0.00 | 0.00 | 42 | 1012.0 |
| 20260504192035 | 66 | 120 | 9.0 | 0.0 | 0.00 | 0.00 | 0.00 | 39 | |
| 20260504190104 | 66 | 110 | 8.0 | 0.0 | 0.00 | 0.00 | 0.00 | 39 | 1012.0 |
| 20260504183110 | 68 | 120 | 6.0 | 0.0 | 0.00 | 0.00 | 0.00 | 34 | 1012.0 |
| 20260504182036 | 68 | 120 | 7.0 | 0.0 | 0.00 | 0.00 | 0.00 | 34 | |
| 20260504180112 | 68 | 130 | 7.0 | 0.0 | 0.00 | 0.00 | 0.00 | 34 | 1012.0 |
| 20260504173110 | 72 | 140 | 8.0 | 0.0 | 0.00 | 0.00 | 0.00 | 28 | 1012.0 |
| 20260504172035 | 72 | 140 | 9.0 | 0.0 | 0.00 | 0.00 | 0.00 | 33 | |
| 20260504170111 | 72 | 140 | 9.0 | 0.0 | 0.00 | 0.00 | 0.00 | 28 | 1012.0 |
| 20260504160105 | 73 | 130 | 10.0 | 0.0 | 0.00 | 0.00 | 0.00 | 31 | 1012.0 |
| 20260504150113 | 73 | 150 | 12.0 | 0.0 | 0.00 | 0.00 | 0.00 | 35 | 1013.0 |